Aérodrome :
LOGIN :

S'inscrire | Disclaimer

   EN    FR    IT 

 










Légende :    VFR   VFR Marginal   IFR   IFR Intensif   IFR Très Intensif
Visi : 
Plafond : 
>= 8 km
>= 3000ft
5 à 8 km
1000 à 3000 ft
1500m à 5 km
500 à 1000 ft
800 à 1500m
200 à 500 ft
< 800m
< 200 ft
Symboles :   Orages  Brouillard  Fortes neiges  Fortes précipitations  Vent > 20 kt
SIGMETs :   Divers  Orages  Givrage  Turbulence  Onde Orograph.  Cendres Volcan.







- Altitude de l'aérodrome : 56 ft


LPOV - Ovar Air Base

DERNIER METAR :
  • 221300Z 34009KT 310V010 9999 SCT010 18/14 Q1018

METARs EXPIRÉS :
  • 221200Z 31008KT 280V360 9999 SCT010 17/15 Q1018
  • 221100Z 34005KT 280V060 9999 SCT008 18/14 Q1018

TAF TAF LPOV
Valide du 22 à 12h jusqu'au 23 à 12h UTC


221102Z 2212/2312 33010KT 9999 FEW008 SCT015
PROB30
TEMPO 2212/2222 BKN008
BECMG 2220/2222 VRB02KT 6000 SCT004
PROB40 2222/2309 1200 BR BKN003
BECMG 2308/2310 31010KT FEW007 SCT014 BKN025
Pas de NOTAMs connus pour ce terrain.



MET'MAP, la Météo Aéronautique d'un coup d'oeil ! - Copyright ORBIFLY Décembre 2007 - Disclaimer

ORBIFLY MET'MAP TEAM :

Programmation & Développement : Alexandra Zaïnal
Conception & Développement : Baudouin d'Aumeries
Co-Programmation & Développement : Marc-Olivier Méhu
Soutien technique & logistique : Manuel Goepfert

Contact : metmap@orbifly.com




SOURCES & CREDITS :

   NOAA